Wind_Speed
38 38 35 36 37 36 33 31 31 30 30 29 28 29 30 27 24 24 23 24 26 28 31 30 28 29 32 35 37 38 40 40 39 38 38 39 40 42 43 44 46 49 52
39 38 35 35 36 36 35 32 32 31 30 30 29 28 27 27 26 25 26 26 28 31 32 31 32 34 36 38 39 40 42 41 40 39 39 40 42 45 47 49 52 54 57
40 39 36 35 36 36 36 34 34 34 33 31 29 27 28 29 28 28 29 30 32 34 34 35 36 38 40 41 42 42 42 42 42 42 42 43 44 45 47 52 56 59 60
41 39 37 37 37 37 37 37 36 35 35 32 30 29 29 30 31 31 33 34 35 37 38 38 40 42 43 43 43 43 42 42 43 45 47 50 52 54 53 53 56 59 60
44 41 38 38 38 38 37 38 37 36 34 33 32 32 31 31 32 33 35 37 38 39 40 42 44 44 44 44 44 43 42 43 45 48 51 54 58 61 62 59 59 60 60
45 41 40 41 40 39 38 38 38 37 34 33 34 34 33 33 34 35 37 38 40 41 42 45 46 44 44 44 43 43 44 46 50 53 56 59 62 64 65 64 64 64 62
46 42 41 41 41 39 38 37 37 37 35 34 34 34 33 34 35 36 37 39 41 42 44 45 44 43 44 44 43 44 47 51 54 57 61 64 66 68 70 70 68 67 67
47 42 41 42 40 39 38 37 36 36 35 34 34 33 33 34 35 36 38 40 42 43 44 43 43 44 44 44 45 47 51 55 58 62 64 67 70 73 74 72 72 72 72
47 42 42 42 40 38 37 36 36 36 34 33 32 32 32 33 35 37 40 41 42 42 42 42 43 43 44 45 48 51 55 59 62 65 67 71 75 75 73 73 75 78 79
46 41 41 42 40 38 37 35 35 35 34 32 32 32 32 34 36 37 39 39 40 41 42 43 43 44 46 48 52 55 58 62 64 67 71 75 76 74 74 76 79 83 86
43 39 39 41 40 38 36 35 34 34 34 33 34 34 34 35 35 36 38 39 39 41 42 43 44 47 49 52 55 59 62 64 67 71 75 75 75 75 77 79 83 89 96
39 39 41 41 40 38 36 35 35 35 35 35 36 36 35 35 35 36 37 39 40 41 43 45 47 50 53 56 59 62 63 66 71 74 75 74 75 76 79 85 91 98 104
38 39 42 41 39 37 35 34 35 36 37 37 37 36 35 34 35 36 37 39 40 42 44 47 51 54 57 59 60 62 66 71 74 74 74 74 76 79 85 92 99 105 110
39 40 40 38 36 35 35 35 36 36 36 36 35 33 32 33 34 36 37 38 41 44 48 51 54 55 56 57 62 67 71 73 73 73 74 76 81 87 93 99 106 111 113
38 38 37 35 34 34 35 35 35 35 34 32 30 29 30 32 34 35 37 40 44 47 51 53 53 54 58 63 67 70 71 71 72 73 76 82 87 93 100 106 110 111 107
33 32 32 31 32 33 33 33 33 32 30 27 26 27 30 31 32 35 39 43 47 50 52 52 55 59 63 67 70 70 70 71 73 77 82 88 94 100 106 110 108 102 93
29 29 28 28 28 28 28 28 27 25 24 23 25 27 28 30 34 38 42 46 49 51 53 56 59 62 66 69 69 69 71 73 78 83 89 94 101 107 109 106 97 85 75
24 23 22 21 21 21 20 20 20 20 21 23 24 26 30 34 38 41 45 48 50 53 55 58 62 65 66 66 68 69 72 78 83 89 95 101 106 108 104 95 82 69 59
16 16 15 14 14 14 15 16 17 18 20 23 26 29 33 37 41 44 47 49 52 54 57 60 63 64 64 66 68 72 77 83 89 95 101 106 107 102 92 79 66 54 45
11 11 11 10 11 12 13 15 17 19 22 25 29 32 36 39 42 45 48 50 52 55 58 61 61 62 64 67 71 77 82 88 94 100 105 105 99 87 74 63 52 42 36
9 9 9 10 11 13 15 17 19 21 25 28 31 34 37 40 43 46 48 51 54 56 57 58 60 63 66 71 77 83 88 93 98 102 102 94 82 70 60 50 41 35 34
11 10 11 12 13 15 17 19 21 24 27 30 33 36 39 41 44 46 49 52 53 54 55 57 60 65 71 76 81 87 92 98 102 99 90 78 66 57 48 40 34 33 33
11 11 12 14 15 17 19 21 24 27 29 32 34 37 39 42 45 48 50 51 51 53 55 58 63 69 75 80 85 91 96 100 97 86 74 64 55 46 38 33 32 31 29
12 13 13 14 16 18 20 22 25 28 31 34 36 38 40 43 45 47 48 49 51 53 57 62 68 73 78 84 89 94 98 95 84 72 62 52 43 36 32 31 31 30 30
13 13 13 14 15 18 21 25 28 31 33 34 36 39 41 43 44 46 47 49 53 57 62 67 72 77 83 88 94 98 94 83 71 60 49 40 33 31 32 32 32 31 31
13 13 13 15 18 22 26 28 30 31 33 35 38 39 41 43 44 46 49 52 56 62 67 72 78 83 88 93 96 91 80 70 59 48 38 32 30 30 29 30 31 32 32
Wind_Direction
247 247 247 242 241 243 245 246 245 245 246 247 252 257 254 249 249 254 261 267 273 277 283 285 283 285 288 291 293 295 298 300 300 297 296 296 295 295 295 296 296 296 296
245 246 245 241 237 240 243 246 246 245 245 247 251 258 254 246 250 257 262 269 275 278 282 283 283 287 290 293 295 298 300 300 297 294 293 294 297 299 300 299 298 298 297
243 245 243 240 236 237 241 244 247 245 246 249 251 255 251 248 253 259 265 270 276 279 281 283 286 289 293 295 297 299 299 297 296 295 294 294 294 294 296 298 299 299 298
244 244 239 238 237 236 238 242 245 245 245 248 250 252 253 254 256 260 265 270 275 278 280 283 286 290 294 296 297 298 297 297 298 298 299 299 299 298 297 296 297 297 297
245 244 236 234 235 236 237 240 243 246 246 247 249 251 253 256 259 262 266 270 275 278 280 283 287 291 294 296 297 297 297 298 299 299 299 300 301 301 301 300 299 299 298
244 243 234 231 234 235 236 239 243 246 249 249 250 252 255 258 262 265 268 272 275 278 280 283 289 292 295 296 298 299 300 300 300 299 300 301 301 301 301 301 299 299 297
244 241 232 229 232 233 235 239 243 245 248 249 250 252 255 259 263 267 270 272 275 277 281 286 290 293 295 297 299 300 300 299 299 300 301 302 303 303 303 303 302 300 299
241 237 227 223 227 230 233 238 242 244 246 248 250 253 256 259 263 267 270 272 275 280 285 288 291 294 296 298 299 299 298 298 299 300 302 303 304 305 305 304 303 301 299
236 231 221 219 222 228 233 238 242 244 245 247 250 254 257 260 263 267 270 274 279 284 287 289 292 294 296 298 298 298 298 299 300 302 303 304 306 306 306 304 303 302 301
228 224 217 216 220 226 232 238 244 246 246 247 251 255 259 262 266 270 275 280 285 287 289 291 293 295 297 298 298 298 299 300 302 303 305 306 307 306 304 304 304 304 304
220 214 212 215 220 226 232 239 245 247 247 249 252 256 260 265 270 276 281 285 286 289 290 293 296 298 298 298 299 299 300 302 304 305 306 307 306 305 305 306 306 306 306
209 204 207 213 220 227 234 240 246 249 249 251 254 258 263 269 275 281 284 286 288 290 293 296 298 298 299 299 300 302 303 304 305 306 307 306 306 306 307 308 309 309 309
199 201 207 212 219 227 234 241 245 248 249 252 255 260 266 272 278 282 285 287 290 293 296 298 299 300 301 302 304 305 306 306 307 307 307 307 308 308 309 310 311 311 311
196 201 206 211 218 226 234 239 243 246 248 251 256 262 269 275 280 283 287 290 294 296 298 299 301 303 304 305 306 307 307 308 308 308 308 309 310 310 311 312 313 313 312
197 202 208 214 222 229 234 238 242 245 248 252 258 265 273 278 282 286 291 294 297 298 300 302 303 304 306 307 307 307 308 308 308 309 310 311 311 312 313 314 314 313 312
199 203 210 217 222 227 231 235 240 245 250 257 265 272 277 281 286 291 295 296 298 300 302 303 305 306 306 306 307 308 308 308 309 310 311 312 313 313 314 315 315 313 313
199 205 210 215 219 224 229 235 241 249 257 266 272 276 280 286 291 294 296 298 300 301 303 305 305 306 306 307 308 308 309 310 311 312 313 314 314 315 316 316 314 313 313
191 197 203 210 216 223 231 240 249 258 266 271 276 281 287 291 293 295 297 299 301 302 304 304 305 306 307 307 308 309 310 311 312 314 315 316 316 317 316 315 314 314 313
179 188 197 207 217 229 240 251 259 265 272 278 283 287 290 293 295 297 299 300 302 303 304 304 305 306 307 308 309 310 311 313 314 315 316 317 317 316 315 315 316 315 313
188 197 205 214 227 240 251 258 265 273 279 283 287 290 293 295 297 298 300 301 302 303 304 305 306 307 309 310 310 311 313 314 316 317 318 318 317 316 315 316 317 316 315
204 216 227 238 247 255 261 267 273 279 283 287 290 292 294 296 298 299 300 301 302 303 305 307 308 309 311 312 313 314 316 317 317 318 318 318 317 316 317 317 317 317 317
222 234 242 248 254 259 265 272 278 283 287 289 291 293 295 296 297 299 300 302 304 306 307 308 310 311 312 314 315 316 317 318 319 319 318 318 317 317 317 318 318 318 319
226 233 242 250 259 266 273 280 284 287 289 291 293 295 296 297 299 301 303 305 306 308 309 310 311 313 315 316 317 318 318 319 320 320 319 319 319 318 318 319 321 320 319
229 239 250 261 270 277 283 287 290 292 293 295 296 297 298 300 302 304 305 307 308 309 310 312 314 316 317 317 318 319 320 321 321 320 320 320 320 320 321 322 323 323 322
238 250 260 269 279 288 293 295 295 295 296 297 298 300 302 304 305 306 307 309 310 312 314 316 317 318 318 319 320 321 323 322 322 322 322 322 322 323 324 324 325 325 324
250 260 271 282 291 296 297 297 297 297 299 301 303 304 306 306 307 308 311 313 315 316 318 319 320 320 320 321 323 324 323 322 323 324 324 324 324 325 325 326 326 326 326
Height
5734 5737 5741 5745 5749 5751 5752 5754 5756 5757 5758 5758 5759 5759 5761 5762 5764 5764 5765 5765 5764 5764 5763 5762 5761 5759 5757 5755 5752 5749 5746 5743 5739 5736 5732 5729 5726 5723 5720 5716 5711 5707 5702
5725 5728 5732 5736 5740 5743 5745 5746 5748 5749 5750 5752 5753 5754 5755 5757 5757 5758 5758 5758 5758 5757 5756 5755 5753 5751 5749 5746 5743 5740 5736 5733 5730 5728 5725 5722 5719 5713 5708 5704 5699 5694 5689
5716 5719 5724 5728 5732 5735 5738 5740 5741 5742 5744 5745 5747 5748 5749 5750 5750 5751 5752 5751 5750 5749 5748 5747 5745 5743 5741 5738 5734 5730 5726 5723 5720 5717 5714 5711 5709 5707 5704 5695 5687 5681 5675
5707 5711 5716 5721 5724 5727 5730 5732 5734 5736 5737 5739 5741 5742 5743 5744 5744 5744 5744 5743 5742 5742 5740 5739 5736 5734 5731 5728 5724 5720 5716 5712 5709 5705 5701 5696 5692 5689 5689 5687 5678 5671 5664
5698 5702 5707 5713 5716 5719 5722 5724 5727 5729 5731 5732 5734 5736 5736 5736 5736 5736 5736 5735 5735 5733 5732 5730 5727 5725 5721 5717 5713 5709 5705 5701 5697 5693 5688 5683 5677 5671 5667 5667 5663 5656 5648
5688 5693 5698 5703 5707 5711 5715 5717 5720 5722 5723 5725 5727 5728 5728 5728 5729 5728 5728 5728 5727 5725 5723 5721 5718 5715 5711 5707 5702 5697 5693 5689 5684 5679 5674 5669 5664 5657 5651 5647 5644 5639 5634
5678 5684 5689 5695 5699 5704 5707 5710 5713 5715 5716 5718 5720 5720 5720 5721 5721 5720 5720 5720 5718 5716 5714 5711 5708 5704 5700 5696 5691 5686 5682 5677 5672 5666 5660 5653 5646 5639 5632 5626 5622 5618 5613
5668 5674 5680 5686 5692 5696 5700 5703 5705 5707 5709 5711 5712 5712 5712 5713 5713 5712 5712 5711 5710 5707 5705 5701 5698 5694 5690 5686 5681 5676 5670 5665 5659 5653 5646 5638 5630 5622 5613 5605 5599 5595 5592
5658 5664 5671 5678 5684 5688 5692 5695 5698 5700 5702 5704 5705 5705 5705 5705 5704 5704 5704 5703 5701 5698 5694 5691 5687 5684 5679 5675 5670 5664 5659 5652 5646 5638 5631 5622 5613 5604 5594 5585 5576 5568 5563
5648 5656 5664 5671 5676 5681 5684 5688 5691 5694 5695 5697 5698 5698 5698 5697 5697 5697 5696 5694 5691 5688 5685 5681 5677 5673 5668 5664 5658 5652 5646 5639 5631 5624 5615 5606 5596 5586 5576 5567 5557 5545 5536
5639 5648 5657 5664 5669 5674 5677 5681 5685 5687 5689 5690 5690 5690 5690 5690 5689 5689 5687 5685 5682 5679 5675 5671 5667 5662 5657 5652 5646 5639 5632 5624 5616 5607 5598 5589 5579 5569 5559 5548 5537 5525 5511
5632 5640 5649 5657 5662 5667 5671 5675 5678 5681 5682 5682 5683 5683 5683 5682 5682 5681 5679 5676 5673 5669 5665 5661 5656 5651 5645 5639 5633 5625 5617 5609 5601 5591 5582 5572 5562 5552 5541 5529 5516 5501 5485
5627 5634 5642 5649 5655 5660 5665 5669 5672 5674 5675 5675 5675 5675 5675 5675 5674 5672 5670 5667 5664 5660 5656 5651 5645 5639 5633 5626 5619 5611 5603 5594 5584 5574 5565 5555 5545 5534 5522 5508 5493 5476 5458
5622 5630 5637 5644 5649 5654 5658 5662 5665 5667 5668 5668 5668 5668 5668 5667 5666 5664 5661 5658 5655 5650 5645 5640 5634 5627 5620 5612 5604 5596 5587 5577 5567 5558 5548 5538 5526 5514 5501 5485 5468 5449 5430
5619 5626 5633 5639 5644 5649 5653 5656 5659 5660 5661 5661 5661 5661 5661 5660 5657 5655 5653 5649 5645 5640 5634 5628 5621 5614 5607 5598 5590 5582 5572 5562 5553 5543 5532 5520 5507 5492 5476 5459 5441 5421 5401
5617 5624 5630 5635 5639 5643 5647 5650 5653 5654 5655 5655 5654 5654 5653 5651 5649 5647 5643 5639 5634 5628 5622 5616 5609 5602 5593 5585 5575 5566 5558 5548 5537 5527 5515 5501 5486 5470 5453 5434 5414 5393 5374
5615 5621 5626 5631 5635 5638 5642 5645 5647 5648 5648 5648 5647 5647 5645 5643 5641 5638 5634 5629 5623 5618 5611 5605 5597 5589 5580 5571 5561 5552 5543 5532 5521 5509 5496 5481 5464 5446 5429 5411 5393 5375 5358
5614 5619 5624 5628 5631 5634 5638 5640 5641 5642 5641 5641 5640 5639 5637 5635 5632 5629 5624 5619 5613 5607 5600 5592 5584 5576 5567 5557 5548 5539 5528 5516 5503 5489 5474 5458 5441 5421 5403 5389 5375 5360 5346
5614 5618 5622 5625 5627 5630 5633 5634 5635 5635 5635 5634 5633 5632 5630 5627 5623 5619 5614 5609 5602 5595 5588 5580 5572 5563 5554 5545 5535 5524 5513 5500 5485 5469 5451 5433 5417 5400 5382 5368 5357 5347 5336
5613 5616 5619 5622 5624 5626 5628 5629 5629 5629 5629 5628 5627 5625 5622 5618 5614 5609 5604 5598 5591 5584 5576 5568 5559 5551 5542 5532 5521 5509 5497 5484 5469 5450 5430 5409 5391 5375 5361 5351 5343 5335 5328
5612 5614 5616 5618 5620 5622 5623 5623 5623 5623 5623 5621 5619 5616 5613 5609 5604 5599 5593 5587 5580 5573 5565 5556 5547 5537 5528 5517 5505 5491 5476 5461 5446 5428 5409 5389 5372 5358 5347 5338 5331 5325 5320
5609 5611 5613 5614 5616 5617 5618 5618 5618 5617 5616 5613 5611 5607 5604 5599 5594 5589 5583 5576 5569 5561 5553 5544 5534 5523 5512 5500 5488 5473 5457 5439 5423 5405 5386 5370 5357 5346 5337 5330 5324 5318 5312
5605 5607 5609 5611 5612 5613 5613 5612 5611 5610 5608 5605 5602 5598 5594 5589 5584 5578 5572 5565 5557 5549 5540 5532 5522 5511 5498 5484 5470 5455 5438 5420 5401 5384 5367 5355 5345 5336 5329 5323 5318 5312 5306
5602 5604 5606 5607 5607 5607 5607 5606 5605 5603 5600 5597 5594 5589 5585 5580 5574 5568 5561 5553 5545 5537 5528 5519 5509 5496 5482 5468 5453 5437 5419 5401 5384 5368 5355 5344 5335 5328 5322 5317 5311 5305 5299
5600 5601 5602 5602 5602 5602 5601 5600 5598 5595 5592 5589 5585 5581 5575 5570 5563 5556 5549 5541 5533 5524 5515 5505 5493 5480 5466 5449 5432 5415 5397 5381 5367 5355 5345 5336 5329 5323 5317 5310 5304 5299 5293
5596 5597 5597 5598 5597 5596 5595 5593 5590 5588 5584 5580 5576 5571 5565 5559 5552 5545 5538 5529 5521 5510 5499 5487 5474 5459 5444 5428 5412 5394 5377 5364 5354 5344 5336 5330 5324 5318 5312 5306 5300 5293 5287